Year,Month,Day,Hour,Minute,Value (Times are PST for temperature in C)
2014,03,31,00,00,7.50
2014,03,31,00,01,7.50
2014,03,31,00,02,7.40
2014,03,31,00,03,7.40
2014,03,31,00,04,7.40
2014,03,31,00,05,7.40
2014,03,31,00,06,7.40
2014,03,31,00,07,7.40
2014,03,31,00,08,7.40
2014,03,31,00,09,7.40
2014,03,31,00,10,7.40
2014,03,31,00,11,7.30
2014,03,31,00,12,7.30
2014,03,31,00,13,7.30
2014,03,31,00,14,7.30
2014,03,31,00,15,7.30
2014,03,31,00,16,7.30
2014,03,31,00,17,7.30
2014,03,31,00,18,7.30
2014,03,31,00,19,7.30
2014,03,31,00,20,7.30
2014,03,31,00,21,7.20
2014,03,31,00,22,7.20
2014,03,31,00,23,7.20
2014,03,31,00,24,7.20
2014,03,31,00,25,7.20
2014,03,31,00,26,7.10
2014,03,31,00,27,7.10
2014,03,31,00,28,7.10
2014,03,31,00,29,7.10
2014,03,31,00,30,7.10
2014,03,31,00,31,7.10
2014,03,31,00,32,7.00
2014,03,31,00,33,7.00
2014,03,31,00,34,7.00
2014,03,31,00,35,7.00
2014,03,31,00,36,7.00
2014,03,31,00,37,6.90
2014,03,31,00,38,6.90
2014,03,31,00,39,6.90
2014,03,31,00,40,6.90
2014,03,31,00,41,6.90
2014,03,31,00,42,6.90
2014,03,31,00,43,6.90
2014,03,31,00,44,6.90
2014,03,31,00,45,6.90
2014,03,31,00,46,6.90
2014,03,31,00,47,6.90
2014,03,31,00,48,6.90
2014,03,31,00,49,6.90
2014,03,31,00,50,6.90
2014,03,31,00,51,6.90
2014,03,31,00,52,6.90
2014,03,31,00,53,6.90
2014,03,31,00,54,6.90
2014,03,31,00,55,6.90
2014,03,31,00,56,6.90
2014,03,31,00,57,6.90
2014,03,31,00,58,6.90
2014,03,31,00,59,6.90
2014,03,31,01,00,6.90
2014,03,31,01,01,6.90
2014,03,31,01,02,6.90
2014,03,31,01,03,6.90
2014,03,31,01,04,6.90
2014,03,31,01,05,6.90
2014,03,31,01,06,6.90
2014,03,31,01,07,6.90
2014,03,31,01,08,6.90
2014,03,31,01,09,6.90
2014,03,31,01,10,6.90
2014,03,31,01,11,6.90
2014,03,31,01,12,6.90
2014,03,31,01,13,6.90
2014,03,31,01,14,6.90
2014,03,31,01,15,6.90
2014,03,31,01,16,6.90
2014,03,31,01,17,6.90
2014,03,31,01,18,6.90
2014,03,31,01,19,6.90
2014,03,31,01,20,6.90
2014,03,31,01,21,6.90
2014,03,31,01,22,6.90
2014,03,31,01,23,6.90
2014,03,31,01,24,6.90
2014,03,31,01,25,6.90
2014,03,31,01,26,6.90
2014,03,31,01,27,6.90
2014,03,31,01,28,6.90
2014,03,31,01,29,6.90
2014,03,31,01,30,6.90
2014,03,31,01,31,6.90
2014,03,31,01,32,6.90
2014,03,31,01,33,6.90
2014,03,31,01,34,6.90
2014,03,31,01,35,6.90
2014,03,31,01,36,6.90
2014,03,31,01,37,6.90
2014,03,31,01,38,6.90
2014,03,31,01,39,6.90
2014,03,31,01,40,6.90
2014,03,31,01,41,6.90
2014,03,31,01,42,6.90
2014,03,31,01,43,6.90
2014,03,31,01,44,6.90
2014,03,31,01,45,6.90
2014,03,31,01,46,6.90
2014,03,31,01,47,6.90
2014,03,31,01,48,6.90
2014,03,31,01,49,6.90
2014,03,31,01,50,6.90
2014,03,31,01,51,6.90
2014,03,31,01,52,6.90
2014,03,31,01,53,6.90
2014,03,31,01,54,6.90
2014,03,31,01,55,6.90
2014,03,31,01,56,6.80
2014,03,31,01,57,6.80
2014,03,31,01,58,6.80
2014,03,31,01,59,6.80
2014,03,31,02,00,6.80
2014,03,31,02,01,6.80
2014,03,31,02,02,6.80
2014,03,31,02,03,6.90
2014,03,31,02,04,6.90
2014,03,31,02,05,6.80
2014,03,31,02,06,6.80
2014,03,31,02,07,6.80
2014,03,31,02,08,6.80
2014,03,31,02,09,6.80
2014,03,31,02,10,6.80
2014,03,31,02,11,6.90
2014,03,31,02,12,6.90
2014,03,31,02,13,6.90
2014,03,31,02,14,6.90
2014,03,31,02,15,6.90
2014,03,31,02,16,6.90
2014,03,31,02,17,6.90
2014,03,31,02,18,6.90
2014,03,31,02,19,6.90
2014,03,31,02,20,6.90
2014,03,31,02,21,6.90
2014,03,31,02,22,6.90
2014,03,31,02,23,6.90
2014,03,31,02,24,6.90
2014,03,31,02,25,6.90
2014,03,31,02,26,6.90
2014,03,31,02,27,6.90
2014,03,31,02,28,6.80
2014,03,31,02,29,6.80
2014,03,31,02,30,6.80
2014,03,31,02,31,6.80
2014,03,31,02,32,6.80
2014,03,31,02,33,6.80
2014,03,31,02,34,6.80
2014,03,31,02,35,6.80
2014,03,31,02,36,6.80
2014,03,31,02,37,6.80
2014,03,31,02,38,6.80
2014,03,31,02,39,6.80
2014,03,31,02,40,6.80
2014,03,31,02,41,6.80
2014,03,31,02,42,6.70
2014,03,31,02,43,6.70
2014,03,31,02,44,6.70
2014,03,31,02,45,6.70
2014,03,31,02,46,6.70
2014,03,31,02,47,6.70
2014,03,31,02,48,6.70
2014,03,31,02,49,6.70
2014,03,31,02,50,6.70
2014,03,31,02,51,6.70
2014,03,31,02,52,6.60
2014,03,31,02,53,6.60
2014,03,31,02,54,6.60
2014,03,31,02,55,6.60
2014,03,31,02,56,6.60
2014,03,31,02,57,6.60
2014,03,31,02,58,6.60
2014,03,31,02,59,6.60
2014,03,31,03,00,6.60
2014,03,31,03,01,6.60
2014,03,31,03,02,6.60
2014,03,31,03,03,6.60
2014,03,31,03,04,6.50
2014,03,31,03,05,6.50
2014,03,31,03,06,6.50
2014,03,31,03,07,6.50
2014,03,31,03,08,6.50
2014,03,31,03,09,6.50
2014,03,31,03,10,6.50
2014,03,31,03,11,6.40
2014,03,31,03,12,6.40
2014,03,31,03,13,6.40
2014,03,31,03,14,6.40
2014,03,31,03,15,6.40
2014,03,31,03,16,6.40
2014,03,31,03,17,6.40
2014,03,31,03,18,6.40
2014,03,31,03,19,6.40
2014,03,31,03,20,6.40
2014,03,31,03,21,6.40
2014,03,31,03,22,6.40
2014,03,31,03,23,6.40
2014,03,31,03,24,6.40
2014,03,31,03,25,6.40
2014,03,31,03,26,6.40
2014,03,31,03,27,6.40
2014,03,31,03,28,6.40
2014,03,31,03,29,6.40
2014,03,31,03,30,6.40
2014,03,31,03,31,6.40
2014,03,31,03,32,6.40
2014,03,31,03,33,6.40
2014,03,31,03,34,6.50
2014,03,31,03,35,6.40
2014,03,31,03,36,6.50
2014,03,31,03,37,6.40
2014,03,31,03,38,6.40
2014,03,31,03,39,6.40
2014,03,31,03,40,6.40
2014,03,31,03,41,6.50
2014,03,31,03,42,6.40
2014,03,31,03,43,6.40
2014,03,31,03,44,6.40
2014,03,31,03,45,6.40
2014,03,31,03,46,6.40
2014,03,31,03,47,6.50
2014,03,31,03,48,6.50
2014,03,31,03,49,6.50
2014,03,31,03,50,6.50
2014,03,31,03,51,6.50
2014,03,31,03,52,6.50
2014,03,31,03,53,6.50
2014,03,31,03,54,6.50
2014,03,31,03,55,6.50
2014,03,31,03,56,6.50
2014,03,31,03,57,6.50
2014,03,31,03,58,6.50
2014,03,31,03,59,6.50
2014,03,31,04,00,6.50
2014,03,31,04,01,6.50
2014,03,31,04,02,6.50
2014,03,31,04,03,6.50
2014,03,31,04,04,6.50
2014,03,31,04,05,6.50
2014,03,31,04,06,6.50
2014,03,31,04,07,6.50
2014,03,31,04,08,6.50
2014,03,31,04,09,6.50
2014,03,31,04,10,6.40
2014,03,31,04,11,6.50
2014,03,31,04,12,6.40
2014,03,31,04,13,6.40
2014,03,31,04,14,6.40
2014,03,31,04,15,6.40
2014,03,31,04,16,6.40
2014,03,31,04,17,6.40
2014,03,31,04,18,6.40
2014,03,31,04,19,6.40
2014,03,31,04,20,6.40
2014,03,31,04,21,6.40
2014,03,31,04,22,6.40
2014,03,31,04,23,6.40
2014,03,31,04,24,6.40
2014,03,31,04,25,6.40
2014,03,31,04,26,6.40
2014,03,31,04,27,6.40
2014,03,31,04,28,6.40
2014,03,31,04,29,6.40
2014,03,31,04,30,6.40
2014,03,31,04,31,6.40
2014,03,31,04,32,6.40
2014,03,31,04,33,6.40
2014,03,31,04,34,6.40
2014,03,31,04,35,6.40
2014,03,31,04,36,6.40
2014,03,31,04,37,6.40
2014,03,31,04,38,6.40
2014,03,31,04,39,6.40
2014,03,31,04,40,6.40
2014,03,31,04,41,6.40
2014,03,31,04,42,6.40
2014,03,31,04,43,6.40
2014,03,31,04,44,6.40
2014,03,31,04,45,6.40
2014,03,31,04,46,6.40
2014,03,31,04,47,6.40
2014,03,31,04,48,6.40
2014,03,31,04,49,6.40
2014,03,31,04,50,6.40
2014,03,31,04,51,6.40
2014,03,31,04,52,6.40
2014,03,31,04,53,6.40
2014,03,31,04,54,6.40
2014,03,31,04,55,6.40
2014,03,31,04,56,6.40
2014,03,31,04,57,6.40
2014,03,31,04,58,6.40
2014,03,31,04,59,6.40
2014,03,31,05,00,6.40
2014,03,31,05,01,6.40
2014,03,31,05,02,6.40
2014,03,31,05,03,6.40
2014,03,31,05,04,6.40
2014,03,31,05,05,6.40
2014,03,31,05,06,6.40
2014,03,31,05,07,6.40
2014,03,31,05,08,6.40
2014,03,31,05,09,6.40
2014,03,31,05,10,6.40
2014,03,31,05,11,6.40
2014,03,31,05,12,6.40
2014,03,31,05,13,6.40
2014,03,31,05,14,6.40
2014,03,31,05,15,6.30
2014,03,31,05,16,6.40
2014,03,31,05,17,6.30
2014,03,31,05,18,6.30
2014,03,31,05,19,6.30
2014,03,31,05,20,6.30
2014,03,31,05,21,6.30
2014,03,31,05,22,6.30
2014,03,31,05,23,6.30
2014,03,31,05,24,6.30
2014,03,31,05,25,6.30
2014,03,31,05,26,6.30
2014,03,31,05,27,6.30
2014,03,31,05,28,6.30
2014,03,31,05,29,6.30
2014,03,31,05,30,6.30
2014,03,31,05,31,6.30
2014,03,31,05,32,6.30
2014,03,31,05,33,6.30
2014,03,31,05,34,6.30
2014,03,31,05,35,6.30
2014,03,31,05,36,6.30
2014,03,31,05,37,6.30
2014,03,31,05,38,6.30
2014,03,31,05,39,6.30
2014,03,31,05,40,6.20
2014,03,31,05,41,6.20
2014,03,31,05,42,6.20
2014,03,31,05,43,6.20
2014,03,31,05,44,6.20
2014,03,31,05,45,6.20
2014,03,31,05,46,6.10
2014,03,31,05,47,6.10
2014,03,31,05,48,6.10
2014,03,31,05,49,6.10
2014,03,31,05,50,6.10
2014,03,31,05,51,6.10
2014,03,31,05,52,6.10
2014,03,31,05,53,6.10
2014,03,31,05,54,6.00
2014,03,31,05,55,6.00
2014,03,31,05,56,6.00
2014,03,31,05,57,6.00
2014,03,31,05,58,5.90
2014,03,31,05,59,5.90
2014,03,31,06,00,5.90
2014,03,31,06,01,5.90
2014,03,31,06,02,5.90
2014,03,31,06,03,5.80
2014,03,31,06,04,5.80
2014,03,31,06,05,5.80
2014,03,31,06,06,5.80
2014,03,31,06,07,5.80
2014,03,31,06,08,5.70
2014,03,31,06,09,5.70
2014,03,31,06,10,5.70
2014,03,31,06,11,5.60
2014,03,31,06,12,5.60
2014,03,31,06,13,5.60
2014,03,31,06,14,5.50
2014,03,31,06,15,5.50
2014,03,31,06,16,5.40
2014,03,31,06,17,5.40
2014,03,31,06,18,5.40
2014,03,31,06,19,5.40
2014,03,31,06,20,5.30
2014,03,31,06,21,5.30
2014,03,31,06,22,5.30
2014,03,31,06,23,5.30
2014,03,31,06,24,5.30
2014,03,31,06,25,5.20
2014,03,31,06,26,5.20
2014,03,31,06,27,5.20
2014,03,31,06,28,5.20
2014,03,31,06,29,5.20
2014,03,31,06,30,5.20
2014,03,31,06,31,5.20
2014,03,31,06,32,5.20
2014,03,31,06,33,5.10
2014,03,31,06,34,5.10
2014,03,31,06,35,5.10
2014,03,31,06,36,5.10
2014,03,31,06,37,5.10
2014,03,31,06,38,5.10
2014,03,31,06,39,5.00
2014,03,31,06,40,5.00
2014,03,31,06,41,5.00
2014,03,31,06,42,5.00
2014,03,31,06,43,4.90
2014,03,31,06,44,4.90
2014,03,31,06,45,4.90
2014,03,31,06,46,4.80
2014,03,31,06,47,4.80
2014,03,31,06,48,4.80
2014,03,31,06,49,4.80
2014,03,31,06,50,4.70
2014,03,31,06,51,4.70
2014,03,31,06,52,4.70
2014,03,31,06,53,4.70
2014,03,31,06,54,4.70
2014,03,31,06,55,4.70
2014,03,31,06,56,4.60
2014,03,31,06,57,4.60
2014,03,31,06,58,4.60
2014,03,31,06,59,4.60
2014,03,31,07,00,4.60
2014,03,31,07,01,4.60
2014,03,31,07,02,4.60
2014,03,31,07,03,4.60
2014,03,31,07,04,4.60
2014,03,31,07,05,4.60
2014,03,31,07,06,4.50
2014,03,31,07,07,4.50
2014,03,31,07,08,4.50
2014,03,31,07,09,4.40
2014,03,31,07,10,4.40
2014,03,31,07,11,4.40
2014,03,31,07,12,4.40
2014,03,31,07,13,4.40
2014,03,31,07,14,4.40
2014,03,31,07,15,4.40
2014,03,31,07,16,4.40
2014,03,31,07,17,4.40
2014,03,31,07,18,4.40
2014,03,31,07,19,4.40
2014,03,31,07,20,4.40
2014,03,31,07,21,4.40
2014,03,31,07,22,4.40
2014,03,31,07,23,4.40
2014,03,31,07,24,4.40
2014,03,31,07,25,4.40
2014,03,31,07,26,4.40
2014,03,31,07,27,4.40
2014,03,31,07,28,4.40
2014,03,31,07,29,4.40
2014,03,31,07,30,4.40
2014,03,31,07,31,4.40
2014,03,31,07,32,4.40
2014,03,31,07,33,4.40
2014,03,31,07,34,4.50
2014,03,31,07,35,4.50
2014,03,31,07,36,4.50
2014,03,31,07,37,4.50
2014,03,31,07,38,4.50
2014,03,31,07,39,4.50
2014,03,31,07,40,4.50
2014,03,31,07,41,4.50
2014,03,31,07,42,4.50
2014,03,31,07,43,4.50
2014,03,31,07,44,4.50
2014,03,31,07,45,4.50
2014,03,31,07,46,4.60
2014,03,31,07,47,4.60
2014,03,31,07,48,4.60
2014,03,31,07,49,4.60
2014,03,31,07,50,4.60
2014,03,31,07,51,4.70
2014,03,31,07,52,4.70
2014,03,31,07,53,4.70
2014,03,31,07,54,4.70
2014,03,31,07,55,4.70
2014,03,31,07,56,4.70
2014,03,31,07,57,4.70
2014,03,31,07,58,4.70
2014,03,31,07,59,4.70
2014,03,31,08,00,4.70
2014,03,31,08,01,4.80
2014,03,31,08,02,4.80
2014,03,31,08,03,4.80
2014,03,31,08,04,4.80
2014,03,31,08,05,4.80
2014,03,31,08,06,4.80
2014,03,31,08,07,4.80
2014,03,31,08,08,4.80
2014,03,31,08,09,4.80
2014,03,31,08,10,4.80
2014,03,31,08,11,4.80
2014,03,31,08,12,4.80
2014,03,31,08,13,4.90
2014,03,31,08,14,4.90
2014,03,31,08,15,4.90
2014,03,31,08,16,4.90
2014,03,31,08,17,4.90
2014,03,31,08,18,4.90
2014,03,31,08,19,4.90
2014,03,31,08,20,4.90
2014,03,31,08,21,4.90
2014,03,31,08,22,4.90
2014,03,31,08,23,4.90
2014,03,31,08,24,4.90
2014,03,31,08,25,5.00
2014,03,31,08,26,5.00
2014,03,31,08,27,5.10
2014,03,31,08,28,5.10
2014,03,31,08,29,5.10
2014,03,31,08,30,5.10
2014,03,31,08,31,5.20
2014,03,31,08,32,5.20
2014,03,31,08,33,5.20
2014,03,31,08,34,5.20
2014,03,31,08,35,5.30
2014,03,31,08,36,5.30
2014,03,31,08,37,5.40
2014,03,31,08,38,5.40
2014,03,31,08,39,5.50
2014,03,31,08,40,5.50
2014,03,31,08,41,5.60
2014,03,31,08,42,5.60
2014,03,31,08,43,5.70
2014,03,31,08,44,5.80
2014,03,31,08,45,5.80
2014,03,31,08,46,5.80
2014,03,31,08,47,5.90
2014,03,31,08,48,5.90
2014,03,31,08,49,6.00
2014,03,31,08,50,6.00
2014,03,31,08,51,6.10
2014,03,31,08,52,6.10
2014,03,31,08,53,6.20
2014,03,31,08,54,6.20
2014,03,31,08,55,6.20
2014,03,31,08,56,6.20
2014,03,31,08,57,6.30
2014,03,31,08,58,6.30
2014,03,31,08,59,6.30
2014,03,31,09,00,6.30
2014,03,31,09,01,6.40
2014,03,31,09,02,6.40
2014,03,31,09,03,6.40
2014,03,31,09,04,6.50
2014,03,31,09,05,6.50
2014,03,31,09,06,6.60
2014,03,31,09,07,6.60
2014,03,31,09,08,6.70
2014,03,31,09,09,6.70
2014,03,31,09,10,6.70
2014,03,31,09,11,6.80
2014,03,31,09,12,6.80
2014,03,31,09,13,6.90
2014,03,31,09,14,6.90
2014,03,31,09,15,7.00
2014,03,31,09,16,7.10
2014,03,31,09,17,7.10
2014,03,31,09,18,7.10
2014,03,31,09,19,7.20
2014,03,31,09,20,7.20
2014,03,31,09,21,7.20
2014,03,31,09,22,7.20
2014,03,31,09,23,7.30
2014,03,31,09,24,7.30
2014,03,31,09,25,7.40
2014,03,31,09,26,7.40
2014,03,31,09,27,7.50
2014,03,31,09,28,7.60
2014,03,31,09,29,7.60
2014,03,31,09,30,7.70
2014,03,31,09,31,7.70
2014,03,31,09,32,7.70
2014,03,31,09,33,7.70
2014,03,31,09,34,7.70
2014,03,31,09,35,7.70
2014,03,31,09,36,7.70
2014,03,31,09,37,7.70
2014,03,31,09,38,7.70
2014,03,31,09,39,7.80
2014,03,31,09,40,7.80
2014,03,31,09,41,7.90
2014,03,31,09,42,7.90
2014,03,31,09,43,8.00
2014,03,31,09,44,8.00
2014,03,31,09,45,8.10
2014,03,31,09,46,8.10
2014,03,31,09,47,8.20
2014,03,31,09,48,8.20
2014,03,31,09,49,8.30
2014,03,31,09,50,8.30
2014,03,31,09,51,8.30
2014,03,31,09,52,8.30
2014,03,31,09,53,8.40
2014,03,31,09,54,8.40
2014,03,31,09,55,8.50
2014,03,31,09,56,8.60
2014,03,31,09,57,8.60
2014,03,31,09,58,8.70
2014,03,31,09,59,8.70
2014,03,31,10,00,8.80
2014,03,31,10,01,8.80
2014,03,31,10,02,8.80
2014,03,31,10,03,8.80
2014,03,31,10,04,8.80
2014,03,31,10,05,8.80
2014,03,31,10,06,8.80
2014,03,31,10,07,8.80
2014,03,31,10,08,8.80
2014,03,31,10,09,8.80
2014,03,31,10,10,8.70
2014,03,31,10,11,8.70
2014,03,31,10,12,8.70
2014,03,31,10,13,8.60
2014,03,31,10,14,8.60
2014,03,31,10,15,8.60
2014,03,31,10,16,8.60
2014,03,31,10,17,8.50
2014,03,31,10,18,8.50
2014,03,31,10,19,8.50
2014,03,31,10,20,8.40
2014,03,31,10,21,8.40
2014,03,31,10,22,8.40
2014,03,31,10,23,8.40
2014,03,31,10,24,8.40
2014,03,31,10,25,8.50
2014,03,31,10,26,8.50
2014,03,31,10,27,8.50
2014,03,31,10,28,8.50
2014,03,31,10,29,8.50
2014,03,31,10,30,8.50
2014,03,31,10,31,8.50
2014,03,31,10,32,8.50
2014,03,31,10,33,8.50
2014,03,31,10,34,8.50
2014,03,31,10,35,8.50
2014,03,31,10,36,8.50
2014,03,31,10,37,8.50
2014,03,31,10,38,8.50
2014,03,31,10,39,8.50
2014,03,31,10,40,8.60
2014,03,31,10,41,8.60
2014,03,31,10,42,8.60
2014,03,31,10,43,8.60
2014,03,31,10,44,8.70
2014,03,31,10,45,8.70
2014,03,31,10,46,8.70
2014,03,31,10,47,8.80
2014,03,31,10,48,8.80
2014,03,31,10,49,8.90
2014,03,31,10,50,9.00
2014,03,31,10,51,9.10
2014,03,31,10,52,9.10
2014,03,31,10,53,9.20
2014,03,31,10,54,9.30
2014,03,31,10,55,9.30
2014,03,31,10,56,9.40
2014,03,31,10,57,9.40
2014,03,31,10,58,9.40
2014,03,31,10,59,9.50
2014,03,31,11,00,9.50
2014,03,31,11,01,9.50
2014,03,31,11,02,9.50
2014,03,31,11,03,9.50
2014,03,31,11,04,9.60
2014,03,31,11,05,9.60
2014,03,31,11,06,9.60
2014,03,31,11,07,9.60
2014,03,31,11,08,9.60
2014,03,31,11,09,9.70
2014,03,31,11,10,9.70
2014,03,31,11,11,9.70
2014,03,31,11,12,9.80
2014,03,31,11,13,9.80
2014,03,31,11,14,9.90
2014,03,31,11,15,9.90
2014,03,31,11,16,10.00
2014,03,31,11,17,10.10
2014,03,31,11,18,10.10
2014,03,31,11,19,10.20
2014,03,31,11,20,10.30
2014,03,31,11,21,10.30
2014,03,31,11,22,10.30
2014,03,31,11,23,10.30
2014,03,31,11,24,10.30
2014,03,31,11,25,10.30
2014,03,31,11,26,10.30
2014,03,31,11,27,10.30
2014,03,31,11,28,10.30
2014,03,31,11,29,10.30
2014,03,31,11,30,10.30
2014,03,31,11,31,10.30
2014,03,31,11,32,10.30
2014,03,31,11,33,10.30
2014,03,31,11,34,10.30
2014,03,31,11,35,10.30
2014,03,31,11,36,10.30
2014,03,31,11,37,10.30
2014,03,31,11,38,10.30
2014,03,31,11,39,10.30
2014,03,31,11,40,10.30
2014,03,31,11,41,10.40
2014,03,31,11,42,10.40
2014,03,31,11,43,10.50
2014,03,31,11,44,10.60
2014,03,31,11,45,10.70
2014,03,31,11,46,10.80
2014,03,31,11,47,10.80
2014,03,31,11,48,10.90
2014,03,31,11,49,10.90
2014,03,31,11,50,10.90
2014,03,31,11,51,10.90
2014,03,31,11,52,10.90
2014,03,31,11,53,10.90
2014,03,31,11,54,10.90
2014,03,31,11,55,11.00
2014,03,31,11,56,11.00
2014,03,31,11,57,11.00
2014,03,31,11,58,11.00
2014,03,31,11,59,10.90
2014,03,31,12,00,10.90
2014,03,31,12,01,11.00
2014,03,31,12,02,11.00
2014,03,31,12,03,11.00
2014,03,31,12,04,11.10
2014,03,31,12,05,11.10
2014,03,31,12,06,11.20
2014,03,31,12,07,11.20
2014,03,31,12,08,11.20
2014,03,31,12,09,11.20
2014,03,31,12,10,11.20
2014,03,31,12,11,11.30
2014,03,31,12,12,11.30
2014,03,31,12,13,11.30
2014,03,31,12,14,11.30
2014,03,31,12,15,11.30
2014,03,31,12,16,11.40
2014,03,31,12,17,11.40
2014,03,31,12,18,11.50
2014,03,31,12,19,11.60
2014,03,31,12,20,11.60
2014,03,31,12,21,11.60
2014,03,31,12,22,11.60
2014,03,31,12,23,11.60
2014,03,31,12,24,11.50
2014,03,31,12,25,11.50
2014,03,31,12,26,11.50
2014,03,31,12,27,11.50
2014,03,31,12,28,11.50
2014,03,31,12,29,11.60
2014,03,31,12,30,11.60
2014,03,31,12,31,11.70
2014,03,31,12,32,11.80
2014,03,31,12,33,11.80
2014,03,31,12,34,11.90
2014,03,31,12,35,11.80
2014,03,31,12,36,11.80
2014,03,31,12,37,11.80
2014,03,31,12,38,11.80
2014,03,31,12,39,11.90
2014,03,31,12,40,11.90
2014,03,31,12,41,11.90
2014,03,31,12,42,11.90
2014,03,31,12,43,11.90
2014,03,31,12,44,11.90
2014,03,31,12,45,11.90
2014,03,31,12,46,12.00
2014,03,31,12,47,12.00
2014,03,31,12,48,11.90
2014,03,31,12,49,11.90
2014,03,31,12,50,11.80
2014,03,31,12,51,11.80
2014,03,31,12,52,11.80
2014,03,31,12,53,11.80
2014,03,31,12,54,11.70
2014,03,31,12,55,11.60
2014,03,31,12,56,11.60
2014,03,31,12,57,11.50
2014,03,31,12,58,11.50
2014,03,31,12,59,11.60
2014,03,31,13,00,11.60
2014,03,31,13,01,11.60
2014,03,31,13,02,11.50
2014,03,31,13,03,11.50
2014,03,31,13,04,11.40
2014,03,31,13,05,11.40
2014,03,31,13,06,11.40
2014,03,31,13,07,11.40
2014,03,31,13,08,11.30
2014,03,31,13,09,11.30
2014,03,31,13,10,11.30
2014,03,31,13,11,11.30
2014,03,31,13,12,11.40
2014,03,31,13,13,11.40
2014,03,31,13,14,11.40
2014,03,31,13,15,11.40
2014,03,31,13,16,11.40
2014,03,31,13,17,11.40
2014,03,31,13,18,11.40
2014,03,31,13,19,11.40
2014,03,31,13,20,11.50
2014,03,31,13,21,11.50
2014,03,31,13,22,11.60
2014,03,31,13,23,11.60
2014,03,31,13,24,11.70
2014,03,31,13,25,11.80
2014,03,31,13,26,11.80
2014,03,31,13,27,11.90
2014,03,31,13,28,11.90
2014,03,31,13,29,12.00
2014,03,31,13,30,12.00
2014,03,31,13,31,12.10
2014,03,31,13,32,12.10
2014,03,31,13,33,12.10
2014,03,31,13,34,12.10
2014,03,31,13,35,12.10
2014,03,31,13,36,12.20
2014,03,31,13,37,12.10
2014,03,31,13,38,12.00
2014,03,31,13,39,11.90
2014,03,31,13,40,11.80
2014,03,31,13,41,11.80
2014,03,31,13,42,11.70
2014,03,31,13,43,11.70
2014,03,31,13,44,11.70
2014,03,31,13,45,11.70
2014,03,31,13,46,11.80
2014,03,31,13,47,11.80
2014,03,31,13,48,11.90
2014,03,31,13,49,12.00
2014,03,31,13,50,12.00
2014,03,31,13,51,12.10
2014,03,31,13,52,12.10
2014,03,31,13,53,12.10
2014,03,31,13,54,12.10
2014,03,31,13,55,12.10
2014,03,31,13,56,12.10
2014,03,31,13,57,12.00
2014,03,31,13,58,12.00
2014,03,31,13,59,12.00
2014,03,31,14,00,12.00
2014,03,31,14,01,12.00
2014,03,31,14,02,12.10
2014,03,31,14,03,12.10
2014,03,31,14,04,12.20
2014,03,31,14,05,12.20
2014,03,31,14,06,12.20
2014,03,31,14,07,12.20
2014,03,31,14,08,12.20
2014,03,31,14,09,12.20
2014,03,31,14,10,12.20
2014,03,31,14,11,12.20
2014,03,31,14,12,12.20
2014,03,31,14,13,12.20
2014,03,31,14,14,12.20
2014,03,31,14,15,12.20
2014,03,31,14,16,12.20
2014,03,31,14,17,12.20
2014,03,31,14,18,12.30
2014,03,31,14,19,12.30
2014,03,31,14,20,12.20
2014,03,31,14,21,12.20
2014,03,31,14,22,12.10
2014,03,31,14,23,12.00
2014,03,31,14,24,11.80
2014,03,31,14,25,11.80
2014,03,31,14,26,11.80
2014,03,31,14,27,11.80
2014,03,31,14,28,11.80
2014,03,31,14,29,11.80
2014,03,31,14,30,11.80
2014,03,31,14,31,11.90
2014,03,31,14,32,11.90
2014,03,31,14,33,12.00
2014,03,31,14,34,12.00
2014,03,31,14,35,12.10
2014,03,31,14,36,12.20
2014,03,31,14,37,12.20
2014,03,31,14,38,12.30
2014,03,31,14,39,12.30
2014,03,31,14,40,12.30
2014,03,31,14,41,12.40
2014,03,31,14,42,12.40
2014,03,31,14,43,12.40
2014,03,31,14,44,12.40
2014,03,31,14,45,12.40
2014,03,31,14,46,12.40
2014,03,31,14,47,12.50
2014,03,31,14,48,12.50
2014,03,31,14,49,12.50
2014,03,31,14,50,12.50
2014,03,31,14,51,12.50
2014,03,31,14,52,12.50
2014,03,31,14,53,12.50
2014,03,31,14,54,12.50
2014,03,31,14,55,12.40
2014,03,31,14,56,12.40
2014,03,31,14,57,12.40
2014,03,31,14,58,12.50
2014,03,31,14,59,12.50
2014,03,31,15,00,12.50
2014,03,31,15,01,12.50
2014,03,31,15,02,12.40
2014,03,31,15,03,12.40
2014,03,31,15,04,12.40
2014,03,31,15,05,12.40
2014,03,31,15,06,12.30
2014,03,31,15,07,12.30
2014,03,31,15,08,12.30
2014,03,31,15,09,12.30
2014,03,31,15,10,12.40
2014,03,31,15,11,12.40
2014,03,31,15,12,12.40
2014,03,31,15,13,12.50
2014,03,31,15,14,12.60
2014,03,31,15,15,12.60
2014,03,31,15,16,12.70
2014,03,31,15,17,12.80
2014,03,31,15,18,12.80
2014,03,31,15,19,12.90
2014,03,31,15,20,13.00
2014,03,31,15,21,13.00
2014,03,31,15,22,13.10
2014,03,31,15,23,13.10
2014,03,31,15,24,13.20
2014,03,31,15,25,13.20
2014,03,31,15,26,13.30
2014,03,31,15,27,13.30
2014,03,31,15,28,13.30
2014,03,31,15,29,13.30
2014,03,31,15,30,13.30
2014,03,31,15,31,13.30
2014,03,31,15,32,13.30
2014,03,31,15,33,13.30
2014,03,31,15,34,13.30
2014,03,31,15,35,13.30
2014,03,31,15,36,13.40
2014,03,31,15,37,13.40
2014,03,31,15,38,13.50
2014,03,31,15,39,13.50
2014,03,31,15,40,13.60
2014,03,31,15,41,13.50
2014,03,31,15,42,13.50
2014,03,31,15,43,13.60
2014,03,31,15,44,13.60
2014,03,31,15,45,13.70
2014,03,31,15,46,13.70
2014,03,31,15,47,13.70
2014,03,31,15,48,13.70
2014,03,31,15,49,13.70
2014,03,31,15,50,13.80
2014,03,31,15,51,13.80
2014,03,31,15,52,13.90
2014,03,31,15,53,13.90
2014,03,31,15,54,13.90
2014,03,31,15,55,13.90
2014,03,31,15,56,13.90
2014,03,31,15,57,13.80
2014,03,31,15,58,13.70
2014,03,31,15,59,13.70
2014,03,31,16,00,13.70
2014,03,31,16,01,13.70
2014,03,31,16,02,13.60
2014,03,31,16,03,13.60
2014,03,31,16,04,13.60
2014,03,31,16,05,13.60
2014,03,31,16,06,13.60
2014,03,31,16,07,13.60
2014,03,31,16,08,13.60
2014,03,31,16,09,13.60
2014,03,31,16,10,13.60
2014,03,31,16,11,13.60
2014,03,31,16,12,13.70
2014,03,31,16,13,13.70
2014,03,31,16,14,13.80
2014,03,31,16,15,13.80
2014,03,31,16,16,13.90
2014,03,31,16,17,13.90
2014,03,31,16,18,13.90
2014,03,31,16,19,13.90
2014,03,31,16,20,13.90
2014,03,31,16,21,13.90
2014,03,31,16,22,13.90
2014,03,31,16,23,13.90
2014,03,31,16,24,13.80
2014,03,31,16,25,13.80
2014,03,31,16,26,13.80
2014,03,31,16,27,13.80
2014,03,31,16,28,13.80
2014,03,31,16,29,13.80
2014,03,31,16,30,13.80
2014,03,31,16,31,13.90
2014,03,31,16,32,13.90
2014,03,31,16,33,13.90
2014,03,31,16,34,13.80
2014,03,31,16,35,13.80
2014,03,31,16,36,13.80
2014,03,31,16,37,13.80
2014,03,31,16,38,13.80
2014,03,31,16,39,13.80
2014,03,31,16,40,13.80
2014,03,31,16,41,13.70
2014,03,31,16,42,13.70
2014,03,31,16,43,13.70
2014,03,31,16,44,13.70
2014,03,31,16,45,13.70
2014,03,31,16,46,13.70
2014,03,31,16,47,13.70
2014,03,31,16,48,13.70
2014,03,31,16,49,13.70
2014,03,31,16,50,13.80
2014,03,31,16,51,13.80
2014,03,31,16,52,13.90
2014,03,31,16,53,13.90
2014,03,31,16,54,13.90
2014,03,31,16,55,13.90
2014,03,31,16,56,13.90
2014,03,31,16,57,13.90
2014,03,31,16,58,14.00
2014,03,31,16,59,14.00
2014,03,31,17,00,14.00
2014,03,31,17,01,14.00
2014,03,31,17,02,13.90
2014,03,31,17,03,14.00
2014,03,31,17,04,14.00
2014,03,31,17,05,13.90
2014,03,31,17,06,13.90
2014,03,31,17,07,13.90
2014,03,31,17,08,13.90
2014,03,31,17,09,13.90
2014,03,31,17,10,13.80
2014,03,31,17,11,13.80
2014,03,31,17,12,13.80
2014,03,31,17,13,13.80
2014,03,31,17,14,13.80
2014,03,31,17,15,13.90
2014,03,31,17,16,13.90
2014,03,31,17,17,13.80
2014,03,31,17,18,13.80
2014,03,31,17,19,13.70
2014,03,31,17,20,13.70
2014,03,31,17,21,13.70
2014,03,31,17,22,13.70
2014,03,31,17,23,13.70
2014,03,31,17,24,13.70
2014,03,31,17,25,13.70
2014,03,31,17,26,13.70
2014,03,31,17,27,13.70
2014,03,31,17,28,13.70
2014,03,31,17,29,13.70
2014,03,31,17,30,13.80
2014,03,31,17,31,13.80
2014,03,31,17,32,13.80
2014,03,31,17,33,13.90
2014,03,31,17,34,13.90
2014,03,31,17,35,13.90
2014,03,31,17,36,13.90
2014,03,31,17,37,13.90
2014,03,31,17,38,13.90
2014,03,31,17,39,14.00
2014,03,31,17,40,14.10
2014,03,31,17,41,14.10
2014,03,31,17,42,14.20
2014,03,31,17,43,14.20
2014,03,31,17,44,14.20
2014,03,31,17,45,14.30
2014,03,31,17,46,14.30
2014,03,31,17,47,14.30
2014,03,31,17,48,14.30